FW4567 Weather Reports


time (UTC)temp
C
wind
direction
speed
KPH
gust
KPH
rain 1hr
cm
rain 24hr
cm
rain mn
cm
humidity
%
barometer
mb
20200811163132 21 97 1.6 4.8 0.00 0.00 0.00 76 1012.8
20200811162534 21 65 1.6 6.4 0.00 0.00 0.00 76 1012.9
20200811162010 22 189 1.6 6.4 0.00 0.00 0.00 76 1012.8
20200811161657 22 165 1.6 8.0 0.00 0.00 0.00 75 1012.7
20200811161017 22 44 1.6 8.0 0.00 0.00 0.00 75 1012.5
20200811160555 22 193 1.6 8.0 0.00 0.00 0.00 75 1012.6
20200811160124 22 161 1.6 8.0 0.00 0.00 0.00 74 1012.6
20200811155522 22 74 1.6 8.0 0.00 0.00 0.00 75 1012.7
20200811154703 22 177 3.2 8.0 0.00 0.00 0.00 74 1012.7
20200811154034 22 83 0.0 6.4 0.00 0.00 0.00 74 1012.7
20200811153524 22 205 1.6 6.4 0.00 0.00 0.00 74 1012.8
20200811153126 22 106 0.0 4.8 0.00 0.00 0.00 75 1012.7
20200811152507 22 146 1.6 6.4 0.00 0.00 0.00 75 1012.7
20200811152111 22 130 1.6 8.0 0.00 0.00 0.00 75 1012.8
20200811151543 22 86 1.6 8.0 0.00 0.00 0.00 76 1012.8
20200811151058 22 81 1.6 9.7 0.00 0.00 0.00 76 1012.8
20200811150546 22 151 1.6 9.7 0.00 0.00 0.00 76 1012.8
20200811150109 22 320 1.6 8.0 0.00 0.00 0.00 76 1013.0
20200811145503 22 141 1.6 6.4 0.00 0.00 0.00 76 1012.9
20200811145055 22 64 0.0 6.4 0.00 0.00 0.00 76 1012.9
20200811144542 22 173 3.2 6.4 0.00 0.00 0.00 76 1013.1
20200811144031 22 100 1.6 6.4 0.00 0.00 0.00 75 1013.0
20200811143135 22 160 3.2 8.0 0.00 0.00 0.00 74 1013.0
20200811142530 22 172 3.2 6.4 0.00 0.00 0.00 73 1013.1
20200811142021 23 126 1.6 8.0 0.00 0.00 0.00 73 1013.3
20200811141636 23 63 1.6 8.0 0.00 0.00 0.00 72 1013.4
20200811140540 23 166 3.2 6.4 0.00 0.00 0.00 71 1013.4
20200811140039 23 173 3.2 6.4 0.00 0.00 0.00 70 1013.3
20200811135509 23 4 1.6 9.7 0.00 0.00 0.00 70 1013.2
20200811135153 23 170 3.2 9.7 0.00 0.00 0.00 70 1013.1
20200811134535 23 128 3.2 8.0 0.00 0.00 0.00 70 1013.1
20200811134005 23 104 3.2 9.7 0.00 0.00 0.00 70 1013.2
20200811133557 23 156 3.2 9.7 0.00 0.00 0.00 70 1013.3
20200811133052 23 100 3.2 9.7 0.00 0.00 0.00 70 1013.3
20200811132511 23 145 1.6 8.0 0.00 0.00 0.00 70 1013.1
20200811132042 24 202 1.6 6.4 0.00 0.00 0.00 69 1013.1
20200811131506 24 14 1.6 8.0 0.00 0.00 0.00 69 1013.1
20200811131039 23 151 1.6 6.4 0.00 0.00 0.00 69 1013.0
20200811130506 23 208 1.6 6.4 0.00 0.00 0.00 69 1013.0
20200811130202 24 76 1.6 9.7 0.00 0.00 0.00 69 1013.0
20200811125543 24 122 3.2 9.7 0.00 0.00 0.00 68 1012.9
20200811125024 24 89 1.6 4.8 0.00 0.00 0.00 68 1012.9
20200811124703 24 114 1.6 6.4 0.00 0.00 0.00 69 1012.8
20200811124045 24 108 1.6 6.4 0.00 0.00 0.00 69 1012.8
20200811123524 23 161 1.6 4.8 0.00 0.00 0.00 70 1012.9
20200811122604 23 200 1.6 4.8 0.00 0.00 0.00 71 1013.0
20200811122030 23 149 1.6 4.8 0.00 0.00 0.00 72 1013.0
20200811121037 23 329 0.0 6.4 0.00 0.00 0.00 72 1013.0
20200811120503 23 359 0.0 6.4 0.00 0.00 0.00 72 1013.3
20200811120109 23 121 0.0 4.8 0.00 0.00 0.00 72 1013.2
20200811115528 23 72 1.6 4.8 0.00 0.00 0.00 72 1013.3
20200811115057 23 36 1.6 8.0 0.00 0.00 0.00 72 1013.2
20200811114556 23 14 1.6 6.4 0.00 0.00 0.00 72 1013.2
20200811114023 22 189 0.0 4.8 0.00 0.00 0.00 73 1013.3
20200811113125 22 186 3.2 6.4 0.00 0.00 0.00 74 1013.2
20200811112540 22 171 1.6 4.8 0.00 0.00 0.00 75 1013.2
20200811112003 22 91 1.6 4.8 0.00 0.00 0.00 76 1013.1
20200811111535 21 204 1.6 4.8 0.00 0.00 0.00 76 1013.2
20200811111010 21 193 1.6 4.8 0.00 0.00 0.00 77 1013.1
20200811110601 21 160 1.6 4.8 0.00 0.00 0.00 77 1013.1
20200811110104 21 167 1.6 3.2 0.00 0.00 0.00 78 1013.1
20200811105045 21 92 0.0 6.4 0.00 0.00 0.00 78 1013.0
20200811104606 21 174 1.6 6.4 0.00 0.00 0.00 79 1013.1
20200811104007 21 18 3.2 6.4 0.00 0.00 0.00 79 1012.8
20200811103555 21 37 1.6 4.8 0.00 0.00 0.00 80 1012.8
20200811103145 20 101 0.0 4.8 0.00 0.00 0.00 81 1012.7
20200811102529 20 15 1.6 3.2 0.00 0.00 0.00 81 1012.8
20200811102057 20 14 0.0 3.2 0.00 0.00 0.00 81 1012.8
20200811101607 20 343 0.0 3.2 0.00 0.00 0.00 82 1012.8
20200811101050 20 39 0.0 4.8 0.00 0.00 0.00 82 1012.7
20200811100523 20 305 1.6 8.0 0.00 0.00 0.00 82 1012.7
20200811100014 20 359 1.6 8.0 0.00 0.00 0.00 82 1012.6
20200811095611 20 42 1.6 3.2 0.00 0.00 0.00 82 1012.6
20200811095036 20 119 1.6 4.8 0.00 0.00 0.00 82 1012.7
20200811094535 20 13 1.6 4.8 0.00 0.00 0.00 82 1012.7
20200811094108 19 4 0.0 4.8 0.00 0.00 0.00 82 1012.6
20200811093542 19 30 0.0 4.8 0.00 0.00 0.00 83 1012.5
20200811093021 19 30 1.6 6.4 0.00 0.00 0.00 84 1012.6
20200811092606 19 12 1.6 6.4 0.00 0.00 0.00 84 1012.6
20200811092045 18 333 0.0 6.4 0.00 0.00 0.00 84 1012.6
20200811091513 18 62 0.0 0.0 0.00 0.00 0.00 85 1012.6
20200811091045 18 38 0.0 3.2 0.00 0.00 0.00 85 1012.6
20200811090529 18 359 0.0 3.2 0.00 0.00 0.00 85 1012.5
20200811090005 18 359 0.0 3.2 0.00 0.00 0.00 86 1012.6
20200811085601 18 359 0.0 3.2 0.00 0.00 0.00 86 1012.6
20200811085015 18 359 0.0 3.2 0.00 0.00 0.00 87 1012.5
20200811084045 18 174 0.0 1.6 0.00 0.00 0.00 88 1012.5
20200811083531 17 174 0.0 1.6 0.00 0.00 0.00 88 1012.6
20200811083003 17 359 0.0 1.6 0.00 0.00 0.00 88 1012.7
20200811082553 17 174 0.0 1.6 0.00 0.00 0.00 88 1012.6
20200811082027 17 174 0.0 3.2 0.00 0.00 0.00 89 1012.5
20200811081033 17 175 0.0 0.0 0.00 0.00 0.00 89 1012.5
20200811080536 17 359 0.0 0.0 0.00 0.00 0.00 89 1012.5
20200811080154 17 359 0.0 0.0 0.00 0.00 0.00 89 1012.4
20200811075537 17 173 0.0 3.2 0.00 0.00 0.00 89 1012.5
20200811075025 17 173 0.0 4.8 0.00 0.00 0.00 89 1012.5
20200810231150 17 359 3.2 8.0 0.00 0.00 0.00 89 1012.1
20200810230338 17 182 6.4 12.9 0.00 0.00 0.00 89 1012.5
20200810225837 17 359 1.6 4.8 0.00 0.00 0.00 89 1012.2
20200810223939 17 359 1.6 6.4 0.00 0.00 0.00 89 1012.2
20200810223256 17 185 1.6 8.0 0.00 0.00 0.00 89 1012.3
20200810222816 17 170 4.8 9.7 0.00 0.00 0.00 89 1012.4
20200810222140 17 359 4.8 12.9 0.00 0.00 0.00 89 1012.6
20200810221107 17 172 4.8 14.5 0.00 0.00 0.00 89 1012.6
20200810220542 17 359 4.8 8.0 0.00 0.00 0.00 89 1012.5
20200810220124 17 359 3.2 8.0 0.00 0.00 0.00 88 1012.5
20200810214914 17 180 4.8 12.9 0.00 0.00 0.00 88 1012.6
20200810214110 17 195 4.8 9.7 0.00 0.00 0.00 88 1012.7
20200810213536 17 359 4.8 9.7 0.00 0.00 0.00 88 1012.6
20200810213009 17 178 4.8 9.7 0.00 0.00 0.00 87 1012.7
20200810212554 17 161 4.8 8.0 0.00 0.00 0.00 87 1012.6
20200810212051 17 359 1.6 8.0 0.00 0.00 0.00 87 1012.6
20200810210142 17 193 1.6 9.7 0.00 0.00 0.00 87 1012.6
20200810205033 17 184 1.6 9.7 0.00 0.00 0.00 87 1012.5
20200810204508 17 359 1.6 4.8 0.00 0.00 0.00 87 1012.4
20200810204052 17 172 1.6 8.0 0.00 0.00 0.00 87 1012.5
20200810203505 18 161 3.2 8.0 0.00 0.00 0.00 87 1012.4
20200810203117 18 181 4.8 9.7 0.00 0.00 0.00 86 1012.5
20200810202530 18 195 1.6 4.8 0.00 0.00 0.00 86 1012.4
20200810202007 18 181 0.0 8.0 0.00 0.00 0.00 86 1012.5
20200810201609 18 359 1.6 9.7 0.00 0.00 0.00 86 1012.5
20200810201015 18 179 3.2 9.7 0.00 0.00 0.00 85 1012.5
20200810200554 18 110 3.2 6.4 0.00 0.00 0.00 85 1012.6
20200810200113 18 195 1.6 6.4 0.00 0.00 0.00 85 1012.6
20200810195517 18 141 0.0 1.6 0.00 0.00 0.00 84 1012.3
20200810195100 18 359 0.0 0.0 0.00 0.00 0.00 84 1012.4
20200810194606 18 359 0.0 0.0 0.00 0.00 0.00 84 1012.4
20200810194024 18 171 0.0 0.0 0.00 0.00 0.00 83 1012.3
20200810193503 19 359 0.0 0.0 0.00 0.00 0.00 83 1012.5
20200810193126 19 165 0.0 0.0 0.00 0.00 0.00 83 1012.4
20200810192534 19 166 0.0 0.0 0.00 0.00 0.00 83 1012.4
20200810192011 19 168 0.0 0.0 0.00 0.00 0.00 82 1012.5
20200810191708 19 359 0.0 1.6 0.00 0.00 0.00 82 1012.4
20200810191036 19 359 0.0 3.2 0.00 0.00 0.00 82 1012.4
20200810190627 20 164 0.0 6.4 0.00 0.00 0.00 81 1012.4
20200810190057 20 181 1.6 6.4 0.00 0.00 0.00 81 1012.5
20200810185516 20 184 1.6 4.8 0.00 0.00 0.00 80 1012.7
20200810185054 20 187 1.6 4.8 0.00 0.00 0.00 80 1012.5
20200810184544 20 359 0.0 3.2 0.00 0.00 0.00 80 1012.4
20200810184023 20 184 0.0 4.8 0.00 0.00 0.00 80 1012.5
20200810183114 20 102 1.6 9.7 0.00 0.00 0.00 79 1012.4
20200810182528 20 146 3.2 9.7 0.00 0.00 0.00 79 1012.7
20200810182105 21 162 1.6 6.4 0.00 0.00 0.00 79 1012.6
20200810181559 21 210 1.6 4.8 0.00 0.00 0.00 79 1012.3
20200810181004 21 124 1.6 8.0 0.00 0.00 0.00 78 1012.5
20200810180553 21 176 3.2 8.0 0.00 0.00 0.00 78 1012.4
20200810180039 21 160 0.0 4.8 0.00 0.00 0.00 77 1012.6
20200810175511 21 177 0.0 4.8 0.00 0.00 0.00 77 1012.5
20200810175056 21 167 1.6 4.8 0.00 0.00 0.00 77 1012.5
20200810174610 21 78 1.6 4.8 0.00 0.00 0.00 76 1012.6
20200810174015 21 193 1.6 4.8 0.00 0.00 0.00 76 1012.8
20200810173120 21 123 1.6 4.8 0.00 0.00 0.00 76 1012.8
20200810172532 21 108 1.6 4.8 0.00 0.00 0.00 76 1012.8
20200810172020 21 152 0.0 4.8 0.00 0.00 0.00 76 1012.9
20200810171653 21 167 1.6 4.8 0.00 0.00 0.00 76 1012.9
20200810171021 21 102 0.0 4.8 0.00 0.00 0.00 76 1012.8
20200810170127 21 170 0.0 4.8 0.00 0.00 0.00 75 1012.9
20200810165526 21 176 1.6 4.8 0.00 0.00 0.00 75 1013.0
20200810165002 22 146 1.6 4.8 0.00 0.00 0.00 74 1012.9
20200810164625 22 121 1.6 4.8 0.00 0.00 0.00 74 1012.9
20200810164047 22 182 0.0 4.8 0.00 0.00 0.00 74 1013.0
20200810163508 22 167 1.6 6.4 0.00 0.00 0.00 73 1013.1
20200810163316 22 216 0.0 3.2 0.00 0.00 0.00 73 1013.0